TimeCST,TemperatureF,Dew PointF,Humidity,Sea Level PressureIn,VisibilityMPH,Wind Direction,Wind SpeedMPH,Gust SpeedMPH,PrecipitationIn,Events,Conditions,WindDirDegrees,DateUTC
12:53 AM,25.0,19.9,81,29.71,10.0,WSW,10.4,-,N/A,,Clear,250,2013-02-13 06:53:00
1:53 AM,21.9,18.0,85,29.71,10.0,WSW,9.2,-,N/A,,Clear,250,2013-02-13 07:53:00
2:53 AM,19.9,17.1,89,29.70,10.0,West,8.1,-,N/A,,Clear,280,2013-02-13 08:53:00
3:53 AM,19.9,17.1,89,29.68,10.0,West,6.9,-,N/A,,Clear,270,2013-02-13 09:53:00
4:53 AM,16.0,12.0,84,29.68,10.0,WSW,4.6,-,N/A,,Clear,240,2013-02-13 10:53:00
5:53 AM,15.1,12.0,88,29.68,10.0,West,5.8,-,N/A,,Clear,280,2013-02-13 11:53:00
6:53 AM,12.9,10.9,92,29.67,10.0,West,6.9,-,N/A,,Scattered Clouds,280,2013-02-13 12:53:00
7:53 AM,17.1,14.0,88,29.65,10.0,Calm,Calm,-,N/A,,Mostly Cloudy,0,2013-02-13 13:53:00
8:53 AM,17.1,15.1,92,29.66,10.0,Calm,Calm,-,N/A,,Mostly Cloudy,0,2013-02-13 14:53:00
9:53 AM,23.0,18.0,81,29.64,10.0,Calm,Calm,-,N/A,,Overcast,0,2013-02-13 15:53:00
10:53 AM,25.0,19.9,81,29.64,10.0,Calm,Calm,-,N/A,,Overcast,0,2013-02-13 16:53:00
11:53 AM,27.0,19.9,75,29.64,10.0,Calm,Calm,-,N/A,,Overcast,0,2013-02-13 17:53:00
12:53 PM,27.0,19.9,75,29.63,10.0,Calm,Calm,-,N/A,,Overcast,0,2013-02-13 18:53:00
1:53 PM,26.1,19.9,78,29.64,10.0,NNE,6.9,-,N/A,,Overcast,30,2013-02-13 19:53:00
2:53 PM,25.0,19.9,81,29.64,10.0,North,5.8,-,N/A,,Overcast,360,2013-02-13 20:53:00
3:53 PM,25.0,19.9,81,29.65,10.0,North,4.6,-,N/A,,Overcast,10,2013-02-13 21:53:00
4:53 PM,25.0,19.9,81,29.67,10.0,North,9.2,-,N/A,,Overcast,350,2013-02-13 22:53:00
5:53 PM,24.1,19.9,84,29.70,10.0,North,9.2,-,N/A,,Overcast,350,2013-02-13 23:53:00
6:53 PM,19.0,17.1,92,29.73,8.0,NNW,6.9,-,N/A,,Mostly Cloudy,330,2013-02-14 00:53:00
7:53 PM,17.1,15.1,92,29.76,8.0,NW,9.2,-,N/A,,Scattered Clouds,320,2013-02-14 01:53:00
8:53 PM,18.0,15.1,88,29.76,10.0,NNW,8.1,-,N/A,,Overcast,330,2013-02-14 02:53:00
9:53 PM,17.1,14.0,88,29.78,9.0,NW,6.9,-,N/A,,Overcast,320,2013-02-14 03:53:00
10:53 PM,19.0,17.1,92,29.79,8.0,NNW,9.2,-,N/A,,Overcast,330,2013-02-14 04:53:00
11:53 PM,19.9,17.1,89,29.81,7.0,North,10.4,-,N/A,,Overcast,350,2013-02-14 05:53:00